Location: Six Mile Lake
(44.9000°N, 79.7170°W)
Time: 23:15:29
(UTC-04:00)

EO-79 - Pass Details

Date: 30 June 2022
Orbit: 588 x 603 km, 98.0° (Epoch: 13 August)

Event Time Altitude Azimuth Distance (km) Brightness Sun altitude
Rises 01:38:49 0° 36° (NE) 2,854 ? -21.8°
Reaches altitude 10° 01:43:04 10° 78° (ENE) 1,947 ? -21.8°
Maximum altitude 01:43:49 10° 88° (E) 1,920 ? -21.8°
Drops below altitude 10° 01:44:34 10° 99° (E) 1,946 ? -21.7°
Enters shadow 01:45:07 - 106° (ESE) 1,997 ? -21.7°
